Weather History for Athens, GA

Change the Weather History Date:

Sunday, October 9, 2011

  Actual Average Record
Temperature  
Mean Temperature 67 °F 65 °F  
Max Temperature 74 °F 76 °F 92 °F (1931)
Min Temperature 60 °F 54 °F 32 °F (2000)
Degree Days  
Heating Degree Days 0 3  
Month to date heating degree days 23 18  
Since 1 July heating degree days 25 28  
Cooling Degree Days 2 3  
Month to date cooling degree days 9 31  
Year to date cooling degree days 2200 1846  
Growing Degree Days 16 (Base 50)    
Moisture  
Dew Point 51 °F    
Average Humidity 59    
Maximum Humidity 69    
Minimum Humidity 49    
Precipitation  
Precipitation 0.00 in 0.12 in 3.21 in (1936)
Month to date precipitation 0.00 1.18  
Year to date precipitation 26.00 36.41  
Snow  
Snow 0.00 in 0.00 in 0.00 in (2002)
Month to date snowfall 0.0  
Since 1 July snowfall 0.0  
Since 1 September snowfall 0.0  
Snow Depth -    
Sea Level Pressure  
Sea Level Pressure 30.26 in    
Wind  
Wind Speed 12 mph (ENE)    
Max Wind Speed 21 mph    
Max Gust Speed 31 mph    
Visibility 10 miles    
Events      
T = Trace of Precipitation, MM = Missing Value Source: NWS Daily Summary

Daily Weather History Graph

Daily Weather History Graph

Search for Another Location

Airport:

Trip Planner

Search our weather history database for the weather conditions in past years. The results will help you decide how hot, cold, wet, or windy it might be!

Date:

Astronomy

Oct. 09, 2011 Rise Set
Actual Time 7:33 AM EDT 7:07 PM EDT
Civil Twilight 7:08 AM EDT 7:32 PM EDT
Nautical Twilight 6:39 AM EDT 8:01 PM EDT
Astronomical Twilight 6:10 AM EDT 8:30 PM EDT
Moon 5:40 PM EDT (10/9) 5:21 AM EDT (10/9)
Length of Visible Light 12h 23m
Length of Day
11h 33m
Waxing Gibbous, 95% of the Moon is Illuminated
Oct 9
Waxing Gibbous
Oct 11
Full
Oct 19
Last Quarter
Oct 26
New
Nov 2
First Quarter

Hourly Weather History & Observations

Time (EDT) Temp. Dew Point Humidity Pressure Visibility Wind Dir Wind Speed Gust Speed Precip Events Conditions
12:51 AM 61.0 °F 45.0 °F 56% 30.34 in 10.0 mi ENE 9.2 mph - N/A   Clear
1:51 AM 61.0 °F 45.0 °F 56% 30.33 in 10.0 mi ENE 6.9 mph - N/A   Clear
2:51 AM 61.0 °F 45.0 °F 56% 30.31 in 10.0 mi ENE 9.2 mph - N/A   Clear
3:51 AM 60.1 °F 45.0 °F 57% 30.31 in 10.0 mi ENE 10.4 mph 17.3 mph N/A   Clear
4:51 AM 60.1 °F 46.9 °F 62% 30.30 in 10.0 mi ENE 9.2 mph - N/A   Clear
5:51 AM 60.1 °F 48.0 °F 64% 30.30 in 10.0 mi ENE 10.4 mph - N/A   Partly Cloudy
6:51 AM 60.1 °F 48.9 °F 67% 30.30 in 10.0 mi NE 11.5 mph - N/A   Clear
7:51 AM 61.0 °F 50.0 °F 67% 30.31 in 10.0 mi ENE 13.8 mph - N/A   Clear
8:51 AM 62.1 °F 51.1 °F 67% 30.32 in 10.0 mi ENE 10.4 mph - N/A   Clear
9:51 AM 64.4 °F 51.8 °F 64% 30.34 in 10.0 mi ENE 11.5 mph 18.4 mph N/A   Clear
10:51 AM 69.1 °F 53.1 °F 57% 30.32 in 10.0 mi ENE 13.8 mph 24.2 mph N/A   Clear
11:51 AM 71.1 °F 53.1 °F 53% 30.31 in 10.0 mi ENE 13.8 mph 21.9 mph N/A   Clear
12:51 PM 73.0 °F 53.1 °F 49% 30.29 in 10.0 mi ENE 13.8 mph 21.9 mph N/A   Partly Cloudy
1:51 PM 73.0 °F 53.1 °F 49% 30.25 in 10.0 mi NE 13.8 mph 20.7 mph N/A   Clear
2:51 PM 73.0 °F 53.1 °F 49% 30.23 in 10.0 mi East 17.3 mph 27.6 mph N/A   Partly Cloudy
3:51 PM 72.0 °F 53.1 °F 51% 30.22 in 10.0 mi ENE 17.3 mph 24.2 mph N/A   Mostly Cloudy
4:51 PM 71.1 °F 53.1 °F 53% 30.21 in 10.0 mi ENE 15.0 mph 18.4 mph N/A   Mostly Cloudy
5:51 PM 71.1 °F 54.0 °F 55% 30.19 in 10.0 mi ENE 13.8 mph - N/A   Mostly Cloudy
6:51 PM 69.8 °F 53.6 °F 56% 30.20 in 10.0 mi ENE 12.7 mph - N/A   Scattered Clouds
7:51 PM 68.0 °F 54.0 °F 61% 30.19 in 10.0 mi ENE 11.5 mph - N/A   Overcast
8:51 PM 66.0 °F 54.0 °F 65% 30.19 in 10.0 mi ENE 8.1 mph - N/A   Clear
9:51 PM 66.9 °F 55.0 °F 66% 30.19 in 10.0 mi ENE 10.4 mph 18.4 mph N/A   Scattered Clouds
10:51 PM 68.0 °F 55.0 °F 63% 30.19 in 10.0 mi ENE 15.0 mph 20.7 mph N/A   Overcast
11:51 PM 66.0 °F 55.9 °F 70% 30.19 in 10.0 mi ENE 11.5 mph - N/A   Partly Cloudy